Regional Weather Roundup
Issued by NWS Upton, NY

Current Version | Previous Version | Graphics & Text | Print | Product List | Glossary Off
Versions: 1 2 3 4 5 6 7 8 9 10 11 12 13 14 15 16 17 18 19 20 21 22 23 24 25 26 27 28 29 30 31 32 33 34 35 36 37 38 39 40 41 42 43 44 45 46 47 48 49 50

000
ASUS41 KOKX 300505
RWROKX

REGIONAL WEATHER ROUNDUP
NATIONAL WEATHER SERVICE NEW YORK NY
100 AM EDT SAT JUL 30 2016

NOTE: "FAIR" INDICATES FEW OR NO CLOUDS BELOW 12,000 FEET WITH NO
SIGNIFICANT WEATHER AND/OR OBSTRUCTIONS TO VISIBILITY.

NYZ071-072-176-178-NJZ106-104-300600-
NEW YORK CITY METRO AREA

CITY           SKY/WX    TMP DP  RH WIND       PRES   REMARKS
Central Park   PTCLDY    77  69  76 CALM      29.96R
LaGuardia APRT PTCLDY    78  69  73 S10       29.92S
Kennedy INTL   PTCLDY    74  69  85 SW5       29.94S
Newark/Liberty CLOUDY    77  69  76 W7        29.93R
Bronx Bot Gard   N/A     75  68  78 SW5       29.94F
Wall St Helipt CLEAR     75  72  88 SW5       29.94S
Teterboro      PTCLDY    76  70  82 CALM      29.92S
$$

NYZ177-179-078>081-300600-
LONG ISLAND NEW YORK

CITY           SKY/WX    TMP DP  RH WIND       PRES   REMARKS
Farmingdale    CLEAR     75  70  84 SW3       29.94R
MacArthur/ISP  PTCLDY    73  70  90 SW6       29.93S
Shirley        CLEAR     71  69  93 CALM      29.94S
Riverhead      NOT AVBL
Westhampton    CLEAR     67  65  93 CALM      29.96R FOG
Southhampton     N/A     70  66  88 CALM      29.90S
Bridgehampton    N/A     66  64  94 CALM      29.93R
East Hampton   FAIR      66  65  96 CALM      29.94R
Montauk          N/A     71  69  93 CALM      29.94R
$$

NYZ052-065-067-300600-
HUDSON VALLEY

CITY           SKY/WX    TMP DP  RH WIND       PRES   REMARKS
White Plains   CLEAR     71  68  90 CALM      29.94S
Newburgh       CLEAR     70  70 100 CALM      29.97R
Montgomery     PTCLDY    70  68  93 CALM      29.95R FOG
Poughkeepsie   CLEAR     72  67  84 CALM      29.94R
Albany         PTCLDY    69  58  67 N3        29.97S
$$

NJZ001-105-106-008-010-013-015-019>022-104-300600-
NEW JERSEY

CITY           SKY/WX    TMP DP  RH WIND       PRES   REMARKS
Newark/Liberty CLOUDY    77  69  76 W7        29.93R
Teterboro      PTCLDY    76  70  82 CALM      29.92S
Caldwell       CLEAR     73  69  87 CALM      29.95R
Morristown     CLOUDY    68  64  88 CALM      29.95R
Somerville     CLOUDY    72  69  90 CALM      29.92S
Linden         FAIR      77  69  76 CALM      29.95R
Sussex         MOCLDY    69  68  96 CALM      29.96S
Abdover          N/A     67  65  93 CALM      29.97R
Trenton        CLOUDY    74  69  85 CALM      29.93S
Millville      CLEAR     70  68  93 CALM      29.95F
Atlantic City  CLEAR     73  69  87 S5        29.95F
Wrightstown    NOT AVBL
Toms River     PTCLDY    70  68  93 CALM      29.96S
Belmar         PTCLDY    72  70  93 SW6       29.96S
$$

PAZ047>061-062-071-300600-
EASTERN PENNSYLVANIA

CITY           SKY/WX    TMP DP  RH WIND       PRES   REMARKS
Philadelphia   PTCLDY    77  71  82 SW7       29.95F
Allentown      PTCLDY    72  69  90 CALM      29.95S
Scranton       CLEAR     71  64  78 E5        29.98R
$$

CTZ002-004>006-009-010-012-RIZ004-006-007-MAZ004-011-015-300600-
SOUTHERN NEW ENGLAND
 IN CT

CITY           SKY/WX    TMP DP  RH WIND       PRES   REMARKS
Bradley INTL   PTCLDY    70  67  90 N5        29.94S
Hartford       CLEAR     75  70  84 CALM      29.93R
Danbury        CLEAR     69  66  90 SW3       29.97R
Wtrbury/Oxford   N/A     70  64  83 CALM      29.97R
Bridgeport     CLEAR     74  70  87 CALM      29.93S
Meriden        CLEAR     72  68  87 CALM      29.93S
New Haven      CLEAR     70  69  97 SW3       29.93S
Chester        FAIR      70  70 100 CALM      29.94S
Groton         CLEAR     72  67  84 CALM      29.92R
Wilimantic     CLEAR     72  70  93 CALM      29.94S

 IN RI

CITY           SKY/WX    TMP DP  RH WIND       PRES   REMARKS
Providence     CLEAR     72  66  81 W5        29.93R
Block Island   CLEAR     69  67  93 NW3       29.94R
Westerly       PTCLDY    71  65  81 CALM      29.93S
 IN MA

CITY           SKY/WX    TMP DP  RH WIND       PRES   REMARKS
Boston         PTCLDY    74  67  78 W5        29.92R
Worchester     CLEAR     67  64  90 W5        29.97R
Westfield      CLEAR     69  66  90 N6        29.95R
Provincetown   FOG       68  68 100 N8        29.91S VSB 1/2
Nantucket      CLOUDY    68  66  93 CALM      29.90R
$$

ANZ330-335-338-340-345-350-353-355-300600-
COASTAL MARINE OBSERVATIONS


STATION/POSITION TIME  SKY/WX   TEMP    WIND        PRES    VSBY  WAVE
                                AIR SEA DIR/SP/G                  HT/PER
                 (UTC)          (F)     (DEG/KT/KT) (MB)    (MI)  (FT/S)
NY HARB ENTRANCE 0350            74 73  230/  6/  6 1013.4          3/ 6
20S FIRE ISLAND  0350            73 74  250/  6/  6 1013.2          3/ 6
GREAT SOUTH BAY  NOT AVBL
23 SSW MONTAUK P 0350            71 70  300/  6/  6 1013.7          2/ 5
15 E BARNEGAT LI 0400               77                N/A           3/ 7
HUDSON CANYON    0350            75 78              1013.2          4/ 6
KINGS POINT      0400            76 73              1013.2
EXECUTION ROCKS  0400            74     180/  4/  4   N/A
CENTRAL LI SOUND 0400            75 75  230/  6/  6   N/A           0
EASTERN LI SOUND 0400            70 67  340/  4/  4   N/A
ROBBINS REEF     0400            76     170/  6/  7 1012.8
$$


>>>>>>>>>>>>>>>>>>>>>>>>>>>> KEY <<<<<<<<<<<<<<<<<<<<<<<<<<<
>                                                          <
>     SKY/WX - Sky Condition/Present Weather               <
>     TMP    - Temperature in Fahrenheit                   <
>     DP     - Dew Point in Fahrenheit                     <
>     RH     - Relative Humidity in Percent                <
>     WIND   - Direction (from) and Speed in MPH           <
>     PRES   - Mean Sea Level Pressure (inches of Hg)      <
>     WCI    - Wind Chill Index                            <
>     VSB    - VISIBILITY IN MILES                         <
>     HX     - HEAT INDEX                                  <
>     TC     - TEMPERATURE IN CELSIUS                      <
>     VRB    - VARIABLE WIND DIRECTION                     <
>                                                          <
>>>>>>>>>>>>>>>>>>>>>>>>>>>> KEY <<<<<<<<<<<<<<<<<<<<<<<<<<<



USA.gov is the U.S. government's official web portal to all federal, state and local government web resources and services.